This is the latest recevied weather packets stored in our database for station/object KE4AMH. If no packets are shown the sender has not sent any weather packets the latest 10 day(s).
| Time | Temp. | Humidity | Pressure | Rain* | Wind** | Luminosity | Snow |
|---|---|---|---|---|---|---|---|
| 1778140416 | 17.22° C | 99% | 1011.2 hPa | 0.51 mm | - | 0 W/m² | - |
| 1778140113 | 17.22° C | 99% | 1011.5 hPa | 0.51 mm | - | 0 W/m² | - |
| 1778139810 | 17.22° C | 99% | 1011.6 hPa | 1.27 mm | - | 0 W/m² | - |
| 1778139507 | 17.22° C | 99% | 1011.6 hPa | 2.29 mm | - | 0 W/m² | - |
| 1778139204 | 17.22° C | 99% | 1011.4 hPa | 2.29 mm | - | 0 W/m² | - |
| 1778138901 | 17.22° C | 99% | 1011.6 hPa | 4.32 mm | - | 0 W/m² | - |
| 1778138598 | 17.22° C | 99% | 1011.4 hPa | 3.56 mm | - | 0 W/m² | - |
| 1778138296 | 17.22° C | 99% | 1011.7 hPa | 3.05 mm | - | 0 W/m² | - |
| 1778137992 | 17.22° C | 99% | 1011.2 hPa | 4.32 mm | - | 0 W/m² | - |
| 1778137689 | 17.22° C | 99% | 1011.5 hPa | 2.29 mm | - | 0 W/m² | - |
| 1778137386 | 17.22° C | 99% | 1011.6 hPa | 0 mm | - | 0 W/m² | - |
| 1778137083 | 17.22° C | 99% | 1011.7 hPa | 0.51 mm | - | 0 W/m² | - |
| 1778136779 | 17.22° C | 99% | 1012 hPa | 1.78 mm | - | 0 W/m² | - |
| 1778136477 | 17.22° C | 99% | 1011.9 hPa | 2.29 mm | - | 0 W/m² | - |
| 1778136175 | 17.22° C | 99% | 1012.3 hPa | 2.29 mm | - | 0 W/m² | - |
| 1778135873 | 17.22° C | 99% | 1011.5 hPa | 3.56 mm | - | 0 W/m² | - |
| 1778135569 | 17.22° C | 99% | 1011.8 hPa | 3.56 mm | - | 0 W/m² | - |
| 1778135266 | 17.22° C | 99% | 1012 hPa | 1.78 mm | - | 0 W/m² | - |
| 1778134963 | 17.22° C | 99% | 1012.3 hPa | 1.78 mm | - | 0 W/m² | - |
| 1778134661 | 17.22° C | 99% | 1012.3 hPa | 3.05 mm | - | 0 W/m² | - |
| 1778134359 | 17.22° C | 99% | 1012.5 hPa | 6.1 mm | - | 0 W/m² | - |
| 1778134057 | 17.22° C | 99% | 1012.6 hPa | 5.33 mm | - | 0 W/m² | - |
| 1778133753 | 17.22° C | 99% | 1013.1 hPa | 3.05 mm | - | 0 W/m² | - |
| 1778133450 | 17.22° C | 99% | 1013.1 hPa | 1.27 mm | - | 0 W/m² | - |
| 1778133145 | 17.22° C | 99% | 1012.8 hPa | 0.51 mm | - | 0 W/m² | - |
* Rain latest hour (hover to see other rain measurements)
** Current wind speed in m/s (hover to see current wind gust speed)